Weather in Cotonou

Benin     6°22′23″N   2°22′37″E
temp.,
°C
wind,
m/s
gust,
m/s
humid.,
%
clouds,
%
prec.,
mm/h
press.,
hPa
HPBL,
m
18 april, sun
sun1801:00+28sw6783100 0.4 1010510
04:00+28sw7881100 0.1 1008624
07:00+28sw6782100 0.1 1010718
10:00+28sw568118 0.0 1012754
13:00+28wsw668085 0.1 1011680
16:00+29ssw6780100 0.0 1009662
19:00+28ssw8983100 0.0 1009634
22:00+28ssw6884100 0.0 1011634
19 april, mon
mon1901:00+28wsw5581100 0.0 1010671
04:00+28wsw7782100 0.0 1008715
07:00+28sw678199 0.0 1009649
10:00+28sw678299 0.0 1012709
13:00+29sw4581100 0.3 1011493
16:00+29ssw567995 0.8 1009674
19:00+29s788099 0.8 1008537
22:00+28s6783100 0.1 1011628
20 april, tue
tue2001:00+28ssw7781100 0.1 1010676
04:00+28sw7781100 0.0 1009725
07:00+28sw6680100 0.1 1010718
10:00+28sw6680100 0.1 1012660
13:00+28sw6680100 0.1 1010567
16:00+28sw667979 0.0 1008612
19:00+28sw67825 0.0 1008599
22:00+28ssw77826 0.0 1010537
21 april, wed
wed2101:00+28ssw55812 0.0 1010578
04:00+28sw66824 0.0 1009615
07:00+28wsw668299 0.0 1010649
10:00+28wsw5581100 0.0 1012616
13:00+29sw4479100 0.0 1010600
16:00+29sw6679100 0.0 1007611
19:00+28ssw778486 0.0 1008644
22:00+28ssw78855 0.0 1009642
22 april, thu
thu2201:00+28sw77825 0.0 1010655
04:00+28sw7882100 0.0 1009728
07:00+28sw678269 0.1 1011729
10:00+28sw66820 0.1 1012532
13:00+29ssw558015 0.1 1011670
16:00+29sw78795 0.0 1008700
19:00+29s8985100 0.0 1008749
22:00+28sw898650 0.0 1009742